Location: Peterborough
(44.3091°N, 78.3197°W)
Time: 04:51:36
(UTC-04:00)

A-11 Canister half - Pass Details

Date: 25 March 2023
Orbit: 1513 x 1686 km, 47.2° (Epoch: 08 June)

Event Time Altitude Azimuth Distance (km) Brightness Sun altitude
Exits shadow 03:42:28 57° 284° (WNW) 1,936 9.2 -34.0°
Maximum altitude 03:45:07 85° 203° (SSW) 1,696 9.0 -33.6°
Drops below altitude 10° 03:55:17 10° 117° (ESE) 3,925 11.3 -32.3°
Sets 03:58:24 0° 117° (ESE) 4,898 11.9 -31.9°
